Regional Weather Roundup
Issued by NWS

Home | Current Version | Previous Version | Text Only | Print | Product List | Glossary Off
Versions: 1 2 3 4 5 6 7 8 9 10 11 12 13 14 15 16 17 18 19 20 21 22 23 24 25 26 27 28 29 30 31 32 33 34 35 36 37 38 39 40 41 42 43 44 45 46 47 48 49 50

000
ASUS43 KFSD 052202
RWRSD

WEATHER ROUNDUP FOR SOUTH DAKOTA
NATIONAL WEATHER SERVICE SIOUX FALLS SD
400 PM CST THU MAR 05 2015

NOTE: "FAIR" INDICATES FEW OR NO CLOUDS BELOW 12,000 FEET WITH NO
SIGNIFICANT WEATHER AND/OR OBSTRUCTIONS TO VISIBILITY.


SDZ001>005-009-010-012>017-052300-
NORTHWEST AND NORTH CENTRAL SOUTH DAKOTA

CITY           SKY/WX    TMP DP  RH WIND       PRES   REMARKS
BUFFALO          N/A     45  11  25 NW26G35   30.00R
FAITH            N/A     46   9  22 NW24G33   30.04R
MOBRIDGE       SUNNY     39  11  31 S15       30.06F
$$

SDZ012>016-024>037-041>051-057-063-072>074-052300-
SOUTHWEST AND SOUTH CENTRAL SOUTH DAKOTA

CITY           SKY/WX    TMP DP  RH WIND       PRES   REMARKS
RAPID CTY ARPT SUNNY     48  15  26 N22G29    30.08S
PIERRE         SUNNY     33  17  51 S12       30.13F WCI  24
CUSTER         SUNNY     36  11  35 W17G31    30.07R
ELLSWORTH AFB  SUNNY     45  17  32 NW21      30.07R
PHILIP         MOSUNNY   43  20  39 SW14      30.10F
PINE RIDGE     SUNNY     40  19  43 W17G25    30.13F
SPEARFISH      FAIR      39  16  38 NW18G25   30.09S
WINNER         MOCLDY    42  11  28 SW9       30.15F
$$

SDZ004>011-016>023-039-040-052300-
NORTHEAST SOUTH DAKOTA

CITY           SKY/WX    TMP DP  RH WIND       PRES   REMARKS
ABERDEEN       SUNNY     25  13  60 S14       30.20F WCI  13
WATERTOWN      SUNNY     22   9  57 S14G23    30.22F WCI   9
SISSETON         N/A     22  10  60 SW15      30.24F WCI   9
$$

SDZ017-020-022-023-036>040-048>070-052300-
SOUTHEAST SOUTH DAKOTA

CITY           SKY/WX    TMP DP  RH WIND       PRES   REMARKS
SIOUX FALLS    MOSUNNY   29   4  34 S15G21    30.29F WCI  18
HURON          SUNNY     32  10  40 S14       30.21F WCI  22
MITCHELL       SUNNY     36   3  25 S13       30.24F
YANKTON        SUNNY     36   3  25 S15       30.29F
$$

ABBREVIATIONS USED IN REMARKS
   TC - TEMPERATURE IN CELSIUS
  WCI - WIND CHILL INDEX
   HX - HEAT INDEX
  VSB - VISIBILITY



USA.gov is the U.S. government's official web portal to all federal, state and local government web resources and services.